This is the latest recevied weather packets stored in our database for station/object KC2WGU. If no packets are shown the sender has not sent any weather packets the latest 10 day(s).
| Time | Temp. | Humidity | Pressure | Rain* | Wind** | Luminosity | Snow |
|---|---|---|---|---|---|---|---|
| 1777267822 | 6.11° C | 83% | 1020.2 hPa | 0 mm | - | 0 W/m² | - |
| 1777267222 | 5.56° C | 83% | 1020.2 hPa | 0 mm | - | 0 W/m² | - |
| 1777266621 | 5.56° C | 83% | 1020.2 hPa | 0 mm | - | 0 W/m² | - |
| 1777266022 | 6.11° C | 81% | 1020.2 hPa | 0 mm | - | 0 W/m² | - |
| 1777265422 | 6.67° C | 80% | 1020.2 hPa | 0 mm | - | 0 W/m² | - |
| 1777264822 | 6.67° C | 79% | 1020.2 hPa | 0 mm | - | 0 W/m² | - |
| 1777264221 | 6.67° C | 78% | 1020.2 hPa | 0 mm | - | 0 W/m² | - |
| 1777263622 | 7.78° C | 77% | 1020.2 hPa | 0 mm | - | 0 W/m² | - |
| 1777263021 | 7.78° C | 76% | 1020 hPa | 0 mm | - | 0 W/m² | - |
| 1777262422 | 8.33° C | 75% | 1019.9 hPa | 0 mm | - | 0 W/m² | - |
| 1777261822 | 8.33° C | 72% | 1019.9 hPa | 0 mm | - | 0 W/m² | - |
| 1777261221 | 9.44° C | 70% | 1019.9 hPa | 0 mm | - | 0 W/m² | - |
| 1777260622 | 9.44° C | 72% | 1019.9 hPa | 0 mm | - | 0 W/m² | - |
| 1777260022 | 9.44° C | 69% | 1019.8 hPa | 0 mm | - | 0 W/m² | - |
| 1777259421 | 10° C | 70% | 1019.8 hPa | 0 mm | - | 0 W/m² | - |
| 1777258822 | 10° C | 70% | 1019.8 hPa | 0 mm | - | 0 W/m² | - |
| 1777258222 | 10° C | 72% | 1019.8 hPa | 0 mm | - | 0 W/m² | - |
| 1777257622 | 10° C | 70% | 1019.7 hPa | 0 mm | - | 0 W/m² | - |
| 1777257022 | 10.56° C | 71% | 1019.7 hPa | 0 mm | - | 0 W/m² | - |
| 1777256422 | 10.56° C | 69% | 1019.6 hPa | 0 mm | - | 0 W/m² | - |
| 1777255823 | 11.11° C | 69% | 1019.6 hPa | 0 mm | - | 0 W/m² | - |
| 1777255223 | 11.11° C | 68% | 1019.6 hPa | 0 mm | - | 0 W/m² | - |
| 1777254622 | 11.11° C | 67% | 1019.5 hPa | 0 mm | - | 0 W/m² | - |
| 1777254021 | 11.67° C | 67% | 1019.1 hPa | 0 mm | - | 0 W/m² | - |
| 1777253422 | 12.22° C | 64% | 1019.1 hPa | 0 mm | - | 0 W/m² | - |
* Rain latest hour (hover to see other rain measurements)
** Current wind speed in m/s (hover to see current wind gust speed)